www.pogodaiklimat.ru

Погода и климат >> Архив погоды >> Индия >> Тамилнад >> Ченнаи


ПОГОДА в Ченнаи

  • Прогноз погоды в Ченнаи
  • Монитор погоды в Ченнаи

АРХИВ ПОГОДЫ в Ченнаи

Время (UTC), дата Ветер
(напр.,м/с)
 
Видим.   Явления Облачность Т
(С)
Тd
(С)
f
(%)
Тe
(С)
Тes
(С)
Комфортность P
(гПа)
Po
(гПа)
Тmin
(С)
Tmax
(С)
R
(мм)
R24
(мм)
S
(см)
06 12.09 З 2 10 км 6/1 600 м
[Sc Ac trans Ci fib]
+31.2 +26.2 75 +47 +61 опасность
перегрева
1008.9 1008.2
09 12.09 ЮЗ 3 10 км 9/6 600 м
[Cu hum Ac trans]
+33.8 +27.2 69 +53 +56 опасность
перегрева
1005.9 1005.2
12 12.09 В 2 10 км 6/1 600 м
[Cu hum Ac trans Ci fib]
+30.0 +26.9 84 +47 +48 опасность
перегрева
1005.5 1004.8 +34.8
15 12.09 ЮЗ 2 4000 м зарница 9/9 600 м
[Sc]
+29.0 +26.2 85 +44 +44 опасность
перегрева
1009.0 1008.3
00 13.09 З 3 4000 м 9/3 600 м
[Sc Ac As Ci fib]
+26.2 +24.6 91 +37 +37 очень
душно
1009.2 1008.5 0.0
03 13.09 ЮЗ 2 10 км 9/5 600 м
[Cu Sc Ac trans Ci fib]
+28.0 +25.4 86 +41 +43 опасность
перегрева
1011.2 1010.5 +24.7 +34.8 0.0
06 13.09 З 3 10 км 5/3 600 м
[Sc Ac trans Ci fib]
+32.8 +26.1 68 +49 +60 опасность
перегрева
1010.1 1009.4
09 13.09 З 2 10 км 5/5 600 м
[Cu hum]
+34.4 +27.6 68 +54 +62 опасность
перегрева
1006.7 1006.0
12 13.09 ЮВ 2 10 км 4/3 600 м
[Cu hum Ac trans]
+30.2 +26.6 81 +47 +47 опасность
перегрева
1005.6 1004.9 +35.1
15 13.09 ЮВ 1 4000 м 5/4 600 м
[Sc Ac trans]
+28.8 +24.8 79 +41 +41 опасность
перегрева
1007.9 1007.2
00 14.09 С 2 4000 м 5/0
[Ci fib]
+25.6 +23.9 90 +35 +35 очень
душно
1008.6 1007.9
03 14.09 ЮЗ 2 10 км 8/0
[Ac trans Ci fib]
+28.2 +24.9 82 +40 +46 очень
душно
1010.6 1009.9 +24.7 +35.1
06 14.09 ЮЗ 3 10 км 5/1 600 м
[Sc Ac trans Ci fib]
+33.6 +25.3 62 +48 +61 опасность
перегрева
1009.4 1008.7
09 14.09 ЮВ 2 10 км 8/5 600 м
[Sc diur, vesp Ci fib]
+32.4 +26.9 73 +50 +56 опасность
перегрева
1005.7 1005.0
12 14.09 ЮВ 2 10 км 1/1 600 м
[Cu hum]
+30.4 +26.8 81 +47 +48 опасность
перегрева
1005.6 1004.9 +34.9
15 14.09 ЮЗ 1 4000 м 1/0 600 м
[Ci fib]
+29.2 +21.3 62 +37 +37 очень
душно
1007.9 1007.2
00 15.09 З 1 4000 м 8/4 600 м
[Sc Ac trans Ci fib]
+26.6 +24.4 88 +37 +37 очень
душно
1008.1 1007.4
03 15.09 ЮЗ 1 10 км 5/1 600 м
[Sc Ac trans Ci fib]
+29.6 +24.5 74 +42 +48 опасность
перегрева
1009.2 1008.5 +25.2 +34.9
06 15.09 ЮЗ 1 10 км 5/1 600 м
[Sc Ci fib]
+33.0 +25.1 63 +47 +66 опасность
перегрева
1008.3 1007.6
09 15.09 ЮВ 3 10 км 6/6 600 м
[]
+32.2 +26.7 73 +50 +55 опасность
перегрева
1005.3 1004.6
12 15.09 С 3 4000 м гроза, ливневой дождь 10/6 600 м
[Cu Sc As op]
+29.0 +27.6 92 +47 +47 опасность
перегрева
1006.0 1005.3 +34.8 0.0
15 15.09 ЮВ 2 4000 м {дождь, морось} 4/1 600 м
[Sc Ci fib]
+28.0 +25.4 86 +41 +41 опасность
перегрева
1007.4 1006.7 0.3
00 16.09 З 3 4000 м 6/3 600 м
[Sc Ac trans Ci fib]
+26.6 +23.8 85 +37 +37 очень
душно
1007.2 1006.5 0.3
03 16.09 З 3 10 км 9/8 600 м
[Sc Ci fib]
+28.8 +24.8 79 +41 +42 опасность
перегрева
1007.0 1006.3 +25.5 +34.8 0.3
06 16.09 З 5 10 км туман 8/8 600 м
[]
+33.2 +26.0 66 +49 +51 опасность
перегрева
1005.8 1005.1
09 16.09 З 2 10 км 6/3 600 м
[Sc Ac trans Ci fib]
+34.4 +28.2 70 +55 +63 опасность
перегрева
1003.7 1003.0
12 16.09 СВ 2 10 км 8/4 600 м
[Sc Ac trans Ci fib]
+31.4 +27.8 81 +51 +51 опасность
перегрева
1003.1 1002.4 +35.5
15 16.09 В 1 4000 м 8/3 600 м
[Sc Ac trans Ci fib]
+29.8 +26.5 83 +46 +46 опасность
перегрева
1005.3 1004.6
00 17.09 ЮЗ 3 4000 м слаб. морось {дождь} 8/4 600 м
[Sc As op Ci fib]
+25.8 +25.5 98 +38 +38 очень
душно
1005.2 1004.5 3
03 17.09 З 3 10 км слаб. морось {дождь} 10/4 600 м
[Sc As op]
+26.0 +25.4 97 +38 +39 очень
душно
1005.9 1005.2 +24.2 +35.5 4
06 17.09 З 3 10 км {дождь, морось} 10/8 600 м
[Sc As trans]
+30.4 +26.5 80 +47 +48 опасность
перегрева
1005.9 1005.2 0.0
09 17.09 СЗ 1 10 км 9/9 600 м
[]
+32.6 +27 +29 жарко 1003.4 1002.7 0.0
12 17.09 ЮВ 2 10 км 9/5 600 м
[Cu Sc As op Ci fib]
+29.8 +27.6 88 +48 +49 опасность
перегрева
1002.9 1002.2 +33.4 0.0
15 17.09 штиль 0 4000 м 9/5 600 м
[Cu Sc As op Ci fib]
+28.8 +27.4 92 +46 +46 опасность
перегрева
1005.6 1004.9 0.0
00 18.09 ЮЗ 1 4000 м 5/3 600 м
[Sc Ci fib]
+27.0 +26.2 95 +41 +41 опасность
перегрева
1005.4 1004.7 0.0
03 18.09 ЮЗ 2 10 км 10/9 600 м
[Sc As trans]
+28.2 +26.5 91 +44 +44 опасность
перегрева
1007.0 1006.3 +25.5 +33.4 0.0
06 18.09 ЮЗ 3 10 км {морось} 10/6 600 м
[Sc As trans]
+30.6 +25.5 74 +45 +47 опасность
перегрева
1006.6 1005.9
09 18.09 ЮЗ 3 10 км 10/4 600 м
[Cu Sc As trans Ci fib]
+31.4 +27.8 81 +51 +55 опасность
перегрева
1004.1 1003.4 0.0
12 18.09 ЮЗ 2 10 км 9/4 600 м
[Cu Sc As trans Ci fib]
+30.2 +25.7 77 +45 +45 опасность
перегрева
1003.7 1003.0 +31.6 0.0
15 18.09 ЮВ 2 4000 м 6/5 600 м
[Sc Ci fib]
+28.8 +26.9 89 +45 +45 опасность
перегрева
1006.0 1005.3 0.0
00 19.09 СЗ 2 2000 м слаб. дождь {гроза} 10/6 300 м
[Sc diur, vesp As op]
+24.4 +24.0 98 +34 +34 очень
душно
1006.7 1006.0 74
03 19.09 ЮЗ 1 4000 м гроза, ливневой дождь 10/8 600 м
[Sc As op]
+24.4 +24.4 100 +34 +34 очень
душно
1008.9 1008.2 +23.0 +31.6 104

 

Местоположение метеостанции Ченнаи (Тамилнад, Индия): широта 13.07 долгота 80.20 высота над уровнем моря 7 м.

В архиве по умолчанию представлена погода в Ченнаи за последнюю неделю. Архивные данные за месяц целиком и за предыдущие месяцы, начиная с января 2011 года, Вы можете получить, выбрав интересующий диапазон дат из раскрывающегося списка и нажав кнопку "Ввод!".


*Определитесь, кто Вы:
робот инопланетянин человек

Внимание! Время в таблицах - всемирное. Для получения местного времени необходимо прибавить поправку, которая равна 5.5 ч.

Смотрите также архив погоды в соседних городах и на ближайших метеорологических станциях:

Погода в Ченнаи (Тамилнад, Индия) (8 км)
Погода в Терутани (Тамилнад, Индия) (73 км)
Погода в Тирупати (Андхра-Прадеш, Индия) (95 км)
Погода в Веллоре (Тамилнад, Индия) (115 км)
Погода в Пондичерри (Пондичерри, Индия) (129 км)
Погода в Куддалоре (Тамилнад, Индия) (152 км)
Погода в Неллуру (Андхра-Прадеш, Индия) (155 км)
Погода в Парангипеттае (Тамилнад, Индия) (181 км)
Погода в Тирупатчере (Тамилнад, Индия) (189 км)
Погода в Маданапалле (Андхра-Прадеш, Индия) (191 км)

Пояснения к столбцам:

Ветер - указаны скорость ветра в м/с - средняя за 10 мин, порывы в срок и между сроками (в фигурных скобках) и направление, откуда дует ветер: С - северный, СВ - северо-восточный, В - восточный, ЮВ - юго-восточный, Ю - южный, ЮЗ - юго-западный, З - западный, СЗ - северо-западный.
Видимость - горизонтальная дальность видимости в метрах или километрах. При видимости от 1 до 10 км при отсутствии осадков обычно наблюдается дымка, при ухудшении видимости до 1 км и менее - туман. В сухую погоду видимость может ухудшаться дымом, пылью или мглою.
Явления - указаны атмосферные явления, наблюдавшиеся в срок или в последний час перед сроком; фигурными скобками обозначены явления, наблюдавшиеся между сроками (за 1-3 часа до срока); квадратными скобками обозначены град или гололедные отложения с указанием их диаметра в мм.
Облачность - указаны через наклонную черту общая и нижняя облачность в баллах и высота нижней границы облаков в метрах; квадратными скобками обозначены формы облаков: Ci - перистые, Cs - перисто-слоистые, Cc - перисто-кучевые, Ac - высококучевые, As - высокослоистые, Sc - слоисто-кучевые, Ns - слоисто-дождевые, Cu - кучевые, Cb - кучево-дождевые. Подробнее классификацию облаков см. в Атласе облаков (PDF).
T - Температура воздуха - температура, измеренная на высоте 2 м над землей.
Td - Температура точки росы - температура, при понижении до которой содержащийся в воздухе водяной пар достигнет насыщения.
f - Относительная влажность воздуха - влажноcть воздуха, измеренная на высоте 2 м над землей.
Te - Эффективная температура - температура, которую ощущает одетый по сезону человек в тени. Характеристика душности погоды. При расчете учитывается влияние влажности воздуха и скорости ветра на теплоощущения человека.
Tes - Эффективная температура на солнце - температура, которую ощущает человек, с поправкой на солнечный нагрев. Характеристика знойности погоды. Зависит от высоты солнца над горизонтом, облачности и скорости ветра. Ночью, в пасмурную погоду, а также при ветре 12 м/с и более поправка равна нулю.
P - Атмосферное давление - приведенное к уровню моря атмосферное давление.
Po - Атмосферное давление - измеренное на уровне метеостанции атмосферное давление.
Tmin - Минимальная температура - минимум температуры воздуха на высоте 2 м над землей.
Tmax - Максимальная температура - максимум температуры воздуха на высоте 2 м над землей.
R - Количество осадков - Количество выпавших осадков за период времени, мм. При наведении курсора мыши на число - период времени, за который выпало указанное количество осадков.
R24 - Количество осадков - Количество выпавших осадков за 24 часа, мм.
S - Снежный покров - Высота снежного покрова, см. При наведении курсора мыши на число - состояние снежного покрова и степень покрытия местности в баллах.